Regional Weather Roundup
Issued by NWS

Home | Current Version | Previous Version | Text Only | Print | Product List | Glossary On
Versions: 1 2 3 4 5 6 7 8 9 10 11 12 13 14 15 16 17 18 19 20 21 22 23 24 25 26 27 28 29 30 31 32 33 34 35 36 37 38 39 40 41 42 43 44 45 46 47 48 49 50
000
ASUS43 KIND 030809
RWRIN

WEATHER ROUNDUP FOR INDIANA
NATIONAL WEATHER SERVICE INDIANAPOLIS IN
400 AM EDT THU SEP 03 2015

NOTE: "FAIR" INDICATES FEW OR NO CLOUDS BELOW 12,000 FEET WITH NO
SIGNIFICANT WEATHER AND/OR OBSTRUCTIONS TO VISIBILITY.

* - STATION DOES NOT REPORT WEATHER SUCH AS PRECIPITATION OR FOG.

+ - STATION NOT QUALITY CONTROLLED BY THE NATIONAL WEATHER SERVICE.
    USE DATA WITH CAUTION...ESPECIALLY DEWPOINT AND RELATIVE
    HUMIDITY OBSERVATIONS.

INZ001>003-010>013-019-020-030900-
NORTHWEST INDIANA

CITY           SKY/WX    TMP DP  RH WIND       PRES   REMARKS
GARY /AIRPORT/ MOCLDY    77  67  70 SW5       29.96F
KNOX *+        PTCLDY    70  70 100 SW5       29.97S
LA PORTE +     PTCLDY   N/A N/A N/A SW3       29.99S
MICHIGAN CITY+ MOCLDY    72  66  83 S6        29.97S
MONTICELLO +   PTCLDY    72  70  95 S5        29.99S
RENSSELAER +   MOCLDY    72  72 100 SW3       29.99S
VALPARAISO     PTCLDY    72  68  87 SW3       29.98F

$$

LMZ046-743>745-030900-
SOUTHERN LAKE MICHIGAN

STATION/POSITION TIME  TEMP    WIND        PRES    WAVE
                       AIR SEA DIR/SP/G            HT
                 (UTC) (F)     (DEG/KT/KT) (MB)    (FT)
BURNS HARBOR     0700   76     190/  9/ 11 1014.9F
MICHIGAN CITY    0700   76     180/  9/ 11   N/A
5NW MICH CITY    0800   75 73  230/  8/ 10   N/A     1

$$

INZ004-005-014>016-021>024-030900-
NORTH CENTRAL INDIANA

CITY           SKY/WX    TMP DP  RH WIND       PRES   REMARKS
GOSHEN         PTCLDY    72  68  87 SW6       29.98F
LOGANSPORT +   CLEAR     68  63  83 CALM      30.01S
PERU/GRISSOM   CLEAR     70  67  88 SW5       29.99S
ROCHESTER +    PTCLDY    75  70  83 SW6       30.00S
SOUTH BEND     PTCLDY    72  68  87 S8        29.98S
WARSAW +       PTCLDY    72  68  88 CALM      29.99S

$$

INZ006>009-017-018-025>027-030900-
NORTHEAST INDIANA

CITY           SKY/WX    TMP DP  RH WIND       PRES   REMARKS
ANGOLA *+        N/A     70  61  73 CALM      30.00S VSB 3/4
AUBURN +       PTCLDY    70  66  88 CALM      30.00F
FORT WAYNE     PTCLDY    70  67  90 S5        30.00S
HUNTINGTON +   PTCLDY    69  65  88 CALM      30.00S

$$

INZ028-029-035-036-043>045-051>053-030900-
WEST CENTRAL INDIANA

CITY           SKY/WX    TMP DP  RH WIND       PRES   REMARKS
CRAWFORDSVL +  CLEAR     63  63 100 SE3       30.01S FOG
GREENCASTLE +  CLEAR     66  63  88 CALM      30.03R FOG
LAFAYETTE      PTCLDY    69  67  93 CALM      29.99S
TERRE HAUTE    PTCLDY    64  63  96 CALM      30.01R FOG

$$

INZ030>032-037>040-046>048-054>057-064-065-030900-
CENTRAL INDIANA

CITY           SKY/WX    TMP DP  RH WIND       PRES   REMARKS
FISHERS *+     CLEAR     68  68 100 CALM      30.01S
FRANKFORT +    CLEAR    N/A N/A N/A CALM      30.03S HAZE
GREENWOOD *+   CLEAR     66  64  94 CALM      30.03R
INDIANAPOLIS   PTCLDY    71  67  87 CALM      30.01R
-EAGLE CREEK   CLEAR     70  68  93 CALM      30.01S
KOKOMO *+      CLEAR     70  64  83 SW6       30.01S
MARION +       PTCLDY    67  61  81 CALM      30.01S
MT COMFORT *+  CLEAR     64 N/A N/A CALM      30.02S
SHELBYVILLE    CLEAR     67  63  87 CALM      30.01R FOG
ZIONSVILLE +   FOG       65  62  89 CALM      30.03R VSB 1

$$

INZ033-034-041-042-049-050-058-059-030900-
EAST CENTRAL INDIANA

CITY           SKY/WX    TMP DP  RH WIND       PRES   REMARKS
MUNCIE         PTCLDY    68  66  93 SW6       30.01S

$$

INZ060-061-067>069-081>083-085>088-030900-
SOUTHWEST INDIANA

CITY           SKY/WX    TMP DP  RH WIND       PRES   REMARKS
EVANSVILLE     CLEAR     71  68  90 CALM      30.01S FOG
HUNTINGBURG *+ CLEAR     68  64  88 CALM      30.02S
WASHINGTON +   CLEAR     66  62  87 CALM      30.01R

$$

INZ062-063-066-070>080-084-089>092-030900-
SOUTH CENTRAL AND SOUTHEAST INDIANA

CITY           SKY/WX    TMP DP  RH WIND       PRES   REMARKS
BLOOMINGTON    CLEAR     66  64  93 CALM      30.02S FOG
NORTH VERNON + CLEAR     70  70 100 CALM      30.02S FOG
SEYMOUR +        N/A     66  64  94 CALM      30.01S FOG

$$



USA.gov is the U.S. government's official web portal to all federal, state and local government web resources and services.